CFG7XM LGSA-EDDM

Flight info

Callsign CFG7XM
Flight time 2h 28m
Altitude 36000
Route SOKRI UB1 DDM UM619 YNN UL611 TUMBO DCT TAZ DCT NAVSU DCT GORPA DCT RASTA DCT REDBU Q112 NAPSA NAPSA4A
Aircraft A21N/M-SDE3FGHIRWY/LB1

Departure

Time 2026-05-06 14:37
Airport Chania International Airport (LGSA)

Arrival

Time 2026-05-06 17:06
Airport Munich Airport (EDDM)
Time Latitude Longitude Altitude Speed Heading
2026-05-06 14:12 35.53775 24.14339 413 ft 0 kts 22°
2026-05-06 14:26 35.53776 24.14339 413 ft 0 kts 22°
2026-05-06 14:27 35.53768 24.14335 413 ft 2 kts 22°
2026-05-06 14:27 35.53754 24.14328 414 ft 2 kts 21°
2026-05-06 14:27 35.53740 24.14322 414 ft 2 kts 22°
2026-05-06 14:27 35.53731 24.14317 414 ft 1 kts 22°
2026-05-06 14:28 35.53716 24.14314 415 ft 2 kts 348°
2026-05-06 14:28 35.53702 24.14321 416 ft 2 kts 321°
2026-05-06 14:28 35.53693 24.14333 416 ft 0 kts 295°
2026-05-06 14:28 35.53693 24.14334 416 ft 2 kts 294°
2026-05-06 14:29 35.53705 24.14300 416 ft 3 kts 291°
2026-05-06 14:29 35.53709 24.14290 415 ft 0 kts 291°
2026-05-06 14:31 35.53712 24.14280 415 ft 3 kts 291°
2026-05-06 14:31 35.53727 24.14234 415 ft 7 kts 291°
2026-05-06 14:32 35.53749 24.14166 414 ft 9 kts 291°
2026-05-06 14:32 35.53776 24.14082 413 ft 11 kts 291°
2026-05-06 14:32 35.53755 24.14001 414 ft 11 kts 205°
2026-05-06 14:32 35.53699 24.13953 415 ft 9 kts 251°
2026-05-06 14:33 35.53716 24.13876 416 ft 10 kts 292°
2026-05-06 14:33 35.53744 24.13791 415 ft 11 kts 292°
2026-05-06 14:33 35.53775 24.13694 414 ft 13 kts 290°
2026-05-06 14:33 35.53811 24.13582 412 ft 15 kts 291°
2026-05-06 14:34 35.53804 24.13500 412 ft 9 kts 207°
2026-05-06 14:34 35.53770 24.13482 415 ft 0 kts 202°
2026-05-06 14:35 35.53736 24.13464 417 ft 8 kts 202°
2026-05-06 14:36 35.53678 24.13450 421 ft 6 kts 160°
2026-05-06 14:36 35.53661 24.13479 421 ft 0 kts 112°
2026-05-06 14:36 35.53604 24.13655 425 ft 56 kts 112°
2026-05-06 14:37 35.53373 24.14365 436 ft 120 kts 111°
2026-05-06 14:37 35.52997 24.15526 461 ft 170 kts 111°
2026-05-06 14:37 35.52557 24.16913 926 ft 177 kts 110°
2026-05-06 14:37 35.52111 24.18319 1546 ft 180 kts 111°
2026-05-06 14:38 35.51635 24.19735 2174 ft 182 kts 112°
2026-05-06 14:38 35.51435 24.21260 2645 ft 189 kts 79°
2026-05-06 14:38 35.52040 24.22696 3037 ft 199 kts 47°
2026-05-06 14:38 35.53016 24.23987 3418 ft 213 kts 46°
2026-05-06 14:39 35.54062 24.25372 3818 ft 228 kts 45°
2026-05-06 14:39 35.55213 24.26851 4138 ft 248 kts 45°
2026-05-06 14:39 35.56412 24.28394 4845 ft 251 kts 46°
2026-05-06 14:39 35.57603 24.29945 5562 ft 254 kts 46°
2026-05-06 14:40 35.58830 24.31552 6247 ft 258 kts 46°
2026-05-06 14:40 35.60061 24.33172 6850 ft 262 kts 46°
2026-05-06 14:40 35.61295 24.34800 7471 ft 265 kts 47°
2026-05-06 14:40 35.62565 24.36475 8101 ft 267 kts 47°
2026-05-06 14:41 35.63823 24.38136 8700 ft 269 kts 47°
2026-05-06 14:41 35.65095 24.39817 9327 ft 271 kts 47°
2026-05-06 14:41 35.66381 24.41526 9939 ft 272 kts 47°
2026-05-06 14:41 35.67743 24.43136 10506 ft 274 kts 34°
2026-05-06 14:42 35.69476 24.44072 11042 ft 275 kts
2026-05-06 14:42 35.71358 24.43945 11587 ft 275 kts 341°
2026-05-06 14:42 35.72986 24.42756 12151 ft 275 kts 314°
2026-05-06 14:42 35.74029 24.40819 12749 ft 276 kts 296°
2026-05-06 14:43 35.74951 24.38765 13348 ft 275 kts 303°
2026-05-06 14:43 35.75979 24.36779 13929 ft 276 kts 303°
2026-05-06 14:43 35.76964 24.34722 14505 ft 277 kts 300°
2026-05-06 14:43 35.77843 24.32607 15070 ft 278 kts 296°
2026-05-06 14:44 35.78610 24.30424 15616 ft 279 kts 293°
2026-05-06 14:44 35.79268 24.28143 16149 ft 281 kts 289°
2026-05-06 14:44 35.79819 24.25807 16686 ft 282 kts 289°
2026-05-06 14:45 35.81414 24.21379 17735 ft 282 kts 297°
2026-05-06 14:45 35.82274 24.19210 18223 ft 284 kts 297°
2026-05-06 14:45 35.83133 24.16999 18723 ft 285 kts 297°
2026-05-06 14:45 35.83978 24.14789 19215 ft 286 kts 296°
2026-05-06 14:46 35.84823 24.12553 19702 ft 287 kts 296°
2026-05-06 14:46 35.85660 24.10323 20170 ft 289 kts 296°
2026-05-06 14:46 35.86500 24.08079 20616 ft 290 kts 296°
2026-05-06 14:46 35.87338 24.05831 21049 ft 292 kts 296°
2026-05-06 14:47 35.88255 24.03596 21422 ft 295 kts 305°
2026-05-06 14:47 35.89536 24.01572 21645 ft 304 kts 311°
2026-05-06 14:47 35.90947 23.99567 21867 ft 314 kts 311°
2026-05-06 14:47 35.92395 23.97493 22086 ft 324 kts 311°
2026-05-06 14:48 35.93864 23.95354 22302 ft 333 kts 310°
2026-05-06 14:48 35.95381 23.93115 22479 ft 342 kts 310°
2026-05-06 14:48 35.96923 23.90821 22649 ft 351 kts 310°
2026-05-06 14:48 35.98504 23.88454 22818 ft 359 kts 310°
2026-05-06 14:49 36.00106 23.86046 23033 ft 366 kts 310°
2026-05-06 14:49 36.01713 23.83626 23343 ft 368 kts 310°
2026-05-06 14:49 36.03326 23.81197 23675 ft 370 kts 310°
2026-05-06 14:49 36.04968 23.78721 24002 ft 372 kts 310°
2026-05-06 14:50 36.06598 23.76258 24316 ft 374 kts 310°
2026-05-06 14:50 36.08248 23.73764 24673 ft 376 kts 310°
2026-05-06 14:50 36.09915 23.71242 25018 ft 378 kts 310°
2026-05-06 14:50 36.11595 23.68698 25361 ft 381 kts 310°
2026-05-06 14:51 36.13269 23.66160 25696 ft 383 kts 310°
2026-05-06 14:51 36.14953 23.63604 26016 ft 385 kts 309°
2026-05-06 14:51 36.16645 23.61034 26326 ft 387 kts 309°
2026-05-06 14:51 36.18337 23.58459 26632 ft 390 kts 309°
2026-05-06 14:52 36.20039 23.55867 26939 ft 392 kts 309°
2026-05-06 14:52 36.21769 23.53232 27233 ft 394 kts 309°
2026-05-06 14:52 36.23505 23.50624 27519 ft 396 kts 312°
2026-05-06 14:52 36.25602 23.48417 27773 ft 400 kts 326°
2026-05-06 14:53 36.28122 23.46893 28060 ft 405 kts 339°
2026-05-06 14:53 36.30893 23.46083 28335 ft 409 kts 347°
2026-05-06 14:53 36.33702 23.45498 28600 ft 412 kts 348°
2026-05-06 14:53 36.36572 23.44922 28850 ft 415 kts 348°
2026-05-06 14:54 36.39429 23.44348 29101 ft 417 kts 348°
2026-05-06 14:54 36.42343 23.43757 29368 ft 419 kts 348°
2026-05-06 14:54 36.45235 23.43166 29632 ft 421 kts 348°
2026-05-06 14:54 36.48161 23.42563 29897 ft 423 kts 348°
2026-05-06 14:55 36.51159 23.41944 30165 ft 425 kts 348°
2026-05-06 14:55 36.54091 23.41337 30419 ft 427 kts 348°
2026-05-06 14:55 36.57036 23.40728 30674 ft 429 kts 348°
2026-05-06 14:55 36.60003 23.40113 30931 ft 430 kts 348°
2026-05-06 14:56 36.63000 23.39492 31183 ft 432 kts 347°
2026-05-06 14:56 36.65982 23.38874 31474 ft 432 kts 347°
2026-05-06 14:56 36.68914 23.38266 31810 ft 430 kts 347°
2026-05-06 14:56 36.71886 23.37650 32146 ft 429 kts 347°
2026-05-06 14:57 36.74835 23.37038 32470 ft 427 kts 347°
2026-05-06 14:57 36.77787 23.36424 32814 ft 426 kts 347°
2026-05-06 14:57 36.80692 23.35818 33152 ft 425 kts 347°
2026-05-06 14:57 36.83598 23.35212 33499 ft 423 kts 347°
2026-05-06 14:58 36.86540 23.34597 33860 ft 422 kts 347°
2026-05-06 14:58 36.89447 23.33989 34222 ft 421 kts 347°
2026-05-06 14:58 36.92308 23.33391 34551 ft 420 kts 346°
2026-05-06 14:58 36.95210 23.32784 34842 ft 420 kts 346°
2026-05-06 14:59 36.98105 23.32179 35112 ft 421 kts 346°
2026-05-06 14:59 37.00993 23.31574 35348 ft 422 kts 346°
2026-05-06 14:59 37.03912 23.30962 35579 ft 422 kts 346°
2026-05-06 14:59 37.06804 23.30356 35802 ft 423 kts 346°
2026-05-06 15:00 37.09719 23.29744 36011 ft 423 kts 346°
2026-05-06 15:00 37.15562 23.28523 36095 ft 424 kts 347°
2026-05-06 15:01 37.21473 23.27279 36103 ft 423 kts 346°
2026-05-06 15:01 37.27311 23.26046 36052 ft 423 kts 346°
2026-05-06 15:02 37.33124 23.24818 36052 ft 423 kts 346°
2026-05-06 15:02 37.38953 23.23569 36061 ft 422 kts 345°
2026-05-06 15:03 37.44572 23.21603 36071 ft 418 kts 336°
2026-05-06 15:03 37.49840 23.18563 36085 ft 415 kts 328°
2026-05-06 15:04 37.54600 23.14574 36086 ft 412 kts 320°
2026-05-06 15:04 37.59045 23.10003 36082 ft 412 kts 318°
2026-05-06 15:05 37.63455 23.05402 36086 ft 412 kts 318°
2026-05-06 15:05 37.67872 23.00787 36049 ft 412 kts 318°
2026-05-06 15:06 37.72297 22.96160 35874 ft 413 kts 318°
2026-05-06 15:06 37.76735 22.91512 35858 ft 413 kts 318°
2026-05-06 15:07 37.81130 22.86902 35989 ft 413 kts 318°
2026-05-06 15:07 37.85574 22.82233 36047 ft 413 kts 318°
2026-05-06 15:08 37.89985 22.77593 36035 ft 414 kts 318°
2026-05-06 15:08 37.94405 22.72934 36012 ft 414 kts 318°
2026-05-06 15:09 37.98831 22.68262 36005 ft 415 kts 318°
2026-05-06 15:09 38.03243 22.63597 35998 ft 415 kts 318°
2026-05-06 15:10 38.07670 22.58908 36001 ft 415 kts 318°
2026-05-06 15:10 38.12109 22.54202 36009 ft 415 kts 318°
2026-05-06 15:11 38.16523 22.49514 36006 ft 415 kts 317°
2026-05-06 15:11 38.20954 22.44798 35994 ft 415 kts 317°
2026-05-06 15:12 38.25353 22.40109 35983 ft 415 kts 317°
2026-05-06 15:12 38.29799 22.35362 35985 ft 415 kts 317°
2026-05-06 15:13 38.34220 22.30633 36010 ft 415 kts 317°
2026-05-06 15:13 38.38632 22.25906 36051 ft 415 kts 317°
2026-05-06 15:14 38.43058 22.21157 36096 ft 415 kts 317°
2026-05-06 15:14 38.47476 22.16408 35864 ft 415 kts 317°
2026-05-06 15:14 38.49663 22.14054 35648 ft 415 kts 317°
2026-05-06 15:15 38.51888 22.11658 35378 ft 415 kts 317°
2026-05-06 15:15 38.54084 22.09292 35260 ft 415 kts 317°
2026-05-06 15:15 38.56291 22.06911 35311 ft 416 kts 317°
2026-05-06 15:16 38.60717 22.02130 35523 ft 416 kts 317°
2026-05-06 15:16 38.62925 21.99740 35632 ft 416 kts 317°
2026-05-06 15:16 38.65118 21.97364 35656 ft 417 kts 317°
2026-05-06 15:17 38.69537 21.92586 35451 ft 417 kts 317°
2026-05-06 15:17 38.71767 21.90182 35291 ft 417 kts 317°
2026-05-06 15:17 38.73987 21.87788 35187 ft 419 kts 317°
2026-05-06 15:18 38.78436 21.82982 35066 ft 422 kts 317°
2026-05-06 15:18 38.82929 21.78118 35010 ft 423 kts 317°
2026-05-06 15:19 38.87413 21.73254 34997 ft 423 kts 317°
2026-05-06 15:19 38.91896 21.68383 35083 ft 423 kts 317°
2026-05-06 15:20 38.96354 21.63532 35336 ft 422 kts 317°
2026-05-06 15:20 38.98587 21.61099 35517 ft 422 kts 317°
2026-05-06 15:20 39.00839 21.58641 35686 ft 422 kts 317°
2026-05-06 15:20 39.03048 21.56230 35810 ft 421 kts 317°
2026-05-06 15:21 39.05291 21.53779 35897 ft 421 kts 317°
2026-05-06 15:21 39.09724 21.48930 35957 ft 420 kts 317°
2026-05-06 15:22 39.14176 21.44051 35769 ft 420 kts 317°
2026-05-06 15:22 39.16404 21.41606 35665 ft 420 kts 317°
2026-05-06 15:22 39.18632 21.39159 35675 ft 420 kts 317°
2026-05-06 15:22 39.20833 21.36739 35777 ft 420 kts 317°
2026-05-06 15:23 39.23050 21.34300 35922 ft 419 kts 316°
2026-05-06 15:23 39.27485 21.29415 35994 ft 419 kts 316°
2026-05-06 15:24 39.31919 21.24522 35904 ft 419 kts 316°
2026-05-06 15:24 39.36330 21.19645 35915 ft 419 kts 316°
2026-05-06 15:25 39.40756 21.14740 36041 ft 419 kts 316°
2026-05-06 15:25 39.45155 21.09858 36135 ft 419 kts 316°
2026-05-06 15:26 39.49585 21.04934 36136 ft 419 kts 316°
2026-05-06 15:26 39.53996 21.00025 36120 ft 419 kts 316°
2026-05-06 15:27 39.58389 20.95126 36113 ft 420 kts 316°
2026-05-06 15:27 39.62815 20.90183 36113 ft 419 kts 316°
2026-05-06 15:28 39.67220 20.85254 36121 ft 419 kts 316°
2026-05-06 15:28 39.71746 20.80497 36124 ft 421 kts 320°
2026-05-06 15:29 39.76486 20.76007 36113 ft 421 kts 321°
2026-05-06 15:29 39.81197 20.71559 36127 ft 421 kts 321°
2026-05-06 15:30 39.85953 20.67059 36158 ft 421 kts 321°
2026-05-06 15:30 39.90664 20.62589 36179 ft 421 kts 321°
2026-05-06 15:31 39.95442 20.58046 36182 ft 422 kts 321°
2026-05-06 15:31 40.00174 20.53538 36172 ft 422 kts 321°
2026-05-06 15:32 40.07331 20.46952 36133 ft 423 kts 325°
2026-05-06 15:32 40.12462 20.43096 36128 ft 424 kts 328°
2026-05-06 15:33 40.17604 20.39358 36132 ft 425 kts 328°
2026-05-06 15:33 40.22769 20.35595 36145 ft 425 kts 328°
2026-05-06 15:34 40.27909 20.31844 36139 ft 425 kts 327°
2026-05-06 15:34 40.33069 20.28070 36144 ft 425 kts 327°
2026-05-06 15:35 40.37767 20.24625 36098 ft 425 kts 327°
2026-05-06 15:35 40.40525 20.22600 35991 ft 425 kts 327°
2026-05-06 15:35 40.43097 20.20710 35894 ft 425 kts 327°
2026-05-06 15:36 40.48279 20.16896 35763 ft 425 kts 327°
2026-05-06 15:36 40.53430 20.13098 35796 ft 425 kts 327°
2026-05-06 15:37 40.58605 20.09276 35920 ft 425 kts 327°
2026-05-06 15:37 40.63759 20.05463 36021 ft 425 kts 327°
2026-05-06 15:38 40.68940 20.01623 36092 ft 425 kts 327°
2026-05-06 15:38 40.74099 19.97792 36108 ft 424 kts 327°
2026-05-06 15:39 40.79283 19.93937 36088 ft 424 kts 327°
2026-05-06 15:39 40.84423 19.90106 36074 ft 425 kts 327°
2026-05-06 15:40 40.89564 19.86267 36064 ft 425 kts 327°
2026-05-06 15:40 40.94729 19.82404 36058 ft 425 kts 327°
2026-05-06 15:41 40.99898 19.78531 36058 ft 425 kts 327°
2026-05-06 15:41 41.05038 19.74672 36062 ft 425 kts 327°
2026-05-06 15:42 41.10189 19.70798 36066 ft 425 kts 327°
2026-05-06 15:42 41.15322 19.66931 36068 ft 426 kts 327°
2026-05-06 15:43 41.20478 19.63039 36069 ft 426 kts 327°
2026-05-06 15:43 41.25594 19.59171 36069 ft 426 kts 327°
2026-05-06 15:44 41.30734 19.55277 36067 ft 426 kts 327°
2026-05-06 15:44 41.35869 19.51379 36065 ft 425 kts 327°
2026-05-06 15:45 41.41042 19.47448 36063 ft 425 kts 327°
2026-05-06 15:45 41.46169 19.43543 36063 ft 425 kts 327°
2026-05-06 15:46 41.51320 19.39612 36063 ft 425 kts 327°
2026-05-06 15:46 41.56430 19.35705 36063 ft 426 kts 327°
2026-05-06 15:47 41.61555 19.31779 36062 ft 425 kts 326°
2026-05-06 15:47 41.66721 19.27815 36059 ft 425 kts 326°
2026-05-06 15:48 41.71829 19.23888 36057 ft 425 kts 326°
2026-05-06 15:48 41.76968 19.19931 36056 ft 425 kts 326°
2026-05-06 15:49 41.82112 19.15961 36057 ft 425 kts 326°
2026-05-06 15:49 41.87224 19.12008 36060 ft 425 kts 326°
2026-05-06 15:50 41.92344 19.08043 36063 ft 425 kts 326°
2026-05-06 15:50 41.97470 19.04065 36064 ft 425 kts 326°
2026-05-06 15:51 42.02572 19.00099 36064 ft 424 kts 326°
2026-05-06 15:51 42.07672 18.96125 36066 ft 424 kts 326°
2026-05-06 15:52 42.12771 18.92146 36073 ft 423 kts 326°
2026-05-06 15:52 42.17899 18.88133 36077 ft 424 kts 326°
2026-05-06 15:53 42.23006 18.84130 36074 ft 425 kts 326°
2026-05-06 15:53 42.28114 18.80120 36072 ft 424 kts 325°
2026-05-06 15:54 42.33171 18.76079 36074 ft 424 kts 325°
2026-05-06 15:54 42.38230 18.72004 36077 ft 424 kts 325°
2026-05-06 15:55 42.43306 18.67916 36084 ft 424 kts 325°
2026-05-06 15:55 42.48365 18.63835 36093 ft 424 kts 325°
2026-05-06 15:56 42.53453 18.59722 36097 ft 423 kts 325°
2026-05-06 15:56 42.58501 18.55632 36067 ft 424 kts 325°
2026-05-06 15:57 42.63547 18.51534 36037 ft 424 kts 325°
2026-05-06 15:57 42.68615 18.47410 36036 ft 424 kts 325°
2026-05-06 15:58 42.73655 18.43304 36043 ft 424 kts 325°
2026-05-06 15:58 42.78704 18.39180 36013 ft 424 kts 325°
2026-05-06 15:59 42.83767 18.35038 35945 ft 425 kts 325°
2026-05-06 15:59 42.88824 18.30893 35874 ft 424 kts 324°
2026-05-06 16:00 42.93897 18.26728 35796 ft 425 kts 324°
2026-05-06 16:00 42.98971 18.22552 35732 ft 425 kts 324°
2026-05-06 16:01 43.04031 18.18381 35689 ft 425 kts 324°
2026-05-06 16:01 43.09099 18.14195 35655 ft 426 kts 324°
2026-05-06 16:02 43.14162 18.10004 35628 ft 426 kts 324°
2026-05-06 16:02 43.19230 18.05801 35598 ft 426 kts 324°
2026-05-06 16:03 43.24285 18.01601 35564 ft 427 kts 324°
2026-05-06 16:03 43.29365 17.97372 35460 ft 428 kts 324°
2026-05-06 16:04 43.34438 17.93144 35328 ft 429 kts 324°
2026-05-06 16:04 43.39551 17.88876 35302 ft 429 kts 324°
2026-05-06 16:05 43.44629 17.84624 35405 ft 430 kts 324°
2026-05-06 16:05 43.49719 17.80351 35597 ft 430 kts 324°
2026-05-06 16:06 43.52263 17.78211 35739 ft 430 kts 324°
2026-05-06 16:06 43.54826 17.76055 35879 ft 430 kts 324°
2026-05-06 16:06 43.57374 17.73909 35983 ft 430 kts 324°
2026-05-06 16:06 43.59905 17.71775 36013 ft 430 kts 324°
2026-05-06 16:07 43.65023 17.67451 35913 ft 431 kts 324°
2026-05-06 16:07 43.70099 17.63156 35725 ft 431 kts 324°
2026-05-06 16:08 43.72655 17.60989 35575 ft 432 kts 324°
2026-05-06 16:08 43.75223 17.58811 35425 ft 432 kts 324°
2026-05-06 16:08 43.77787 17.56633 35298 ft 431 kts 324°
2026-05-06 16:08 43.80312 17.54487 35208 ft 432 kts 324°
2026-05-06 16:09 43.85431 17.50137 35200 ft 432 kts 324°
2026-05-06 16:09 43.90543 17.45783 35345 ft 432 kts 324°
2026-05-06 16:10 43.93097 17.43603 35450 ft 432 kts 324°
2026-05-06 16:10 43.95629 17.41439 35587 ft 432 kts 324°
2026-05-06 16:10 43.98212 17.39228 35720 ft 432 kts 324°
2026-05-06 16:10 44.00730 17.37072 35846 ft 431 kts 324°
2026-05-06 16:11 44.03317 17.34852 35978 ft 431 kts 323°
2026-05-06 16:11 44.05837 17.32689 36053 ft 431 kts 323°
2026-05-06 16:11 44.10947 17.28296 36050 ft 432 kts 323°
2026-05-06 16:12 44.16045 17.23903 35909 ft 432 kts 323°
2026-05-06 16:12 44.21153 17.19492 35856 ft 433 kts 323°
2026-05-06 16:13 44.26263 17.15070 35752 ft 433 kts 323°
2026-05-06 16:13 44.28843 17.12834 35606 ft 433 kts 323°
2026-05-06 16:13 44.31382 17.10631 35417 ft 433 kts 323°
2026-05-06 16:14 44.33958 17.08393 35190 ft 433 kts 323°
2026-05-06 16:14 44.36515 17.06170 35111 ft 433 kts 323°
2026-05-06 16:14 44.41616 17.01727 35233 ft 434 kts 322°
2026-05-06 16:15 44.44173 16.99495 35354 ft 434 kts 322°
2026-05-06 16:15 44.46748 16.97245 35448 ft 434 kts 322°
2026-05-06 16:15 44.51849 16.92771 35573 ft 433 kts 321°
2026-05-06 16:16 44.56676 16.87856 35753 ft 429 kts 315°
2026-05-06 16:16 44.61177 16.82418 35891 ft 428 kts 313°
2026-05-06 16:17 44.65643 16.76904 35960 ft 428 kts 313°
2026-05-06 16:17 44.70097 16.71397 35975 ft 428 kts 313°
2026-05-06 16:18 44.74553 16.65882 35955 ft 428 kts 313°
2026-05-06 16:18 44.79005 16.60361 35947 ft 428 kts 313°
2026-05-06 16:19 44.83457 16.54830 35941 ft 428 kts 313°
2026-05-06 16:19 44.87895 16.49305 35938 ft 429 kts 313°
2026-05-06 16:20 44.92359 16.43735 35939 ft 429 kts 313°
2026-05-06 16:20 44.96824 16.38152 35938 ft 430 kts 313°
2026-05-06 16:21 45.01292 16.32552 35935 ft 430 kts 312°
2026-05-06 16:21 45.05777 16.26920 35933 ft 431 kts 312°
2026-05-06 16:22 45.10260 16.21277 35933 ft 431 kts 312°
2026-05-06 16:22 45.14731 16.15636 35934 ft 432 kts 312°
2026-05-06 16:23 45.19215 16.09963 35934 ft 433 kts 312°
2026-05-06 16:23 45.23700 16.04276 35931 ft 435 kts 312°
2026-05-06 16:24 45.28215 15.98542 35925 ft 436 kts 312°
2026-05-06 16:24 45.32703 15.92830 35922 ft 437 kts 312°
2026-05-06 16:25 45.37252 15.87030 35913 ft 439 kts 312°
2026-05-06 16:25 45.41802 15.81216 35907 ft 440 kts 312°
2026-05-06 16:26 45.46347 15.75392 35911 ft 441 kts 312°
2026-05-06 16:26 45.50885 15.69560 35912 ft 441 kts 312°
2026-05-06 16:27 45.55458 15.63674 35913 ft 442 kts 312°
2026-05-06 16:27 45.60012 15.57796 35917 ft 442 kts 312°
2026-05-06 16:28 45.64555 15.51919 35922 ft 443 kts 312°
2026-05-06 16:28 45.69104 15.46021 35928 ft 443 kts 312°
2026-05-06 16:29 45.73656 15.40103 35932 ft 443 kts 312°
2026-05-06 16:29 45.78304 15.34274 35934 ft 446 kts 315°
2026-05-06 16:30 45.82399 15.29721 35931 ft 447 kts 316°
2026-05-06 16:30 45.88152 15.23404 35928 ft 447 kts 316°
2026-05-06 16:31 45.93072 15.17977 35928 ft 447 kts 316°
2026-05-06 16:31 45.97975 15.12550 35931 ft 446 kts 316°
2026-05-06 16:32 46.02895 15.07089 35931 ft 446 kts 316°
2026-05-06 16:32 46.07811 15.01619 35929 ft 446 kts 316°
2026-05-06 16:33 46.12689 14.96177 35926 ft 446 kts 316°
2026-05-06 16:34 46.20072 14.87916 35860 ft 448 kts 316°
2026-05-06 16:34 46.24969 14.82423 35805 ft 447 kts 316°
2026-05-06 16:35 46.29874 14.76906 35878 ft 447 kts 316°
2026-05-06 16:35 46.34792 14.71361 35771 ft 447 kts 316°
2026-05-06 16:36 46.39686 14.65831 35663 ft 447 kts 316°
2026-05-06 16:36 46.44583 14.60286 35515 ft 448 kts 316°
2026-05-06 16:36 46.47027 14.57513 35413 ft 448 kts 316°
2026-05-06 16:37 46.49502 14.54702 35275 ft 448 kts 316°
2026-05-06 16:37 46.51942 14.51927 35160 ft 448 kts 315°
2026-05-06 16:37 46.54381 14.49151 35222 ft 448 kts 315°
2026-05-06 16:37 46.56816 14.46374 35359 ft 449 kts 315°
2026-05-06 16:38 46.59280 14.43558 35521 ft 449 kts 315°
2026-05-06 16:38 46.61721 14.40769 35661 ft 449 kts 315°
2026-05-06 16:38 46.64178 14.37958 35775 ft 448 kts 315°
2026-05-06 16:39 46.69081 14.32339 35908 ft 447 kts 315°
2026-05-06 16:39 46.73969 14.26722 35930 ft 446 kts 315°
2026-05-06 16:40 46.78807 14.21150 35910 ft 446 kts 315°
2026-05-06 16:40 46.83676 14.15532 35906 ft 446 kts 315°
2026-05-06 16:41 46.88522 14.09925 35834 ft 446 kts 315°
2026-05-06 16:41 46.93399 14.04271 35674 ft 447 kts 314°
2026-05-06 16:41 46.95813 14.01466 35567 ft 447 kts 314°
2026-05-06 16:42 46.98238 13.98647 35430 ft 447 kts 314°
2026-05-06 16:42 47.00672 13.95813 35266 ft 447 kts 314°
2026-05-06 16:42 47.03101 13.92981 35066 ft 447 kts 314°
2026-05-06 16:42 47.05559 13.90111 34850 ft 447 kts 314°
2026-05-06 16:43 47.07968 13.87296 34632 ft 448 kts 314°
2026-05-06 16:43 47.10395 13.84459 34453 ft 448 kts 314°
2026-05-06 16:43 47.12848 13.81586 34288 ft 447 kts 314°
2026-05-06 16:43 47.15268 13.78749 33799 ft 449 kts 313°
2026-05-06 16:44 47.17710 13.75877 32966 ft 454 kts 313°
2026-05-06 16:44 47.20173 13.72972 32100 ft 459 kts 314°
2026-05-06 16:44 47.22652 13.70048 31322 ft 461 kts 314°
2026-05-06 16:44 47.25155 13.67102 30679 ft 458 kts 314°
2026-05-06 16:45 47.27640 13.64173 29982 ft 453 kts 314°
2026-05-06 16:45 47.30078 13.61297 29382 ft 446 kts 314°
2026-05-06 16:45 47.32462 13.58483 28911 ft 435 kts 314°
2026-05-06 16:45 47.34804 13.55710 28452 ft 429 kts 314°
2026-05-06 16:46 47.37120 13.52960 28109 ft 427 kts 314°
2026-05-06 16:46 47.39423 13.50221 27771 ft 424 kts 314°
2026-05-06 16:46 47.41702 13.47510 27422 ft 423 kts 314°
2026-05-06 16:46 47.43976 13.44801 26992 ft 420 kts 314°
2026-05-06 16:47 47.46253 13.42087 26517 ft 418 kts 314°
2026-05-06 16:47 47.48489 13.39419 26010 ft 415 kts 315°
2026-05-06 16:47 47.50711 13.36759 25487 ft 414 kts 314°
2026-05-06 16:47 47.52923 13.34088 25050 ft 410 kts 314°
2026-05-06 16:48 47.55127 13.31417 24579 ft 406 kts 314°
2026-05-06 16:48 47.57285 13.28801 24142 ft 402 kts 314°
2026-05-06 16:48 47.59459 13.26159 23715 ft 400 kts 314°
2026-05-06 16:48 47.61583 13.23576 23291 ft 398 kts 314°
2026-05-06 16:49 47.63724 13.20969 22928 ft 396 kts 314°
2026-05-06 16:49 47.65848 13.18384 22535 ft 392 kts 314°
2026-05-06 16:49 47.67948 13.15826 22044 ft 388 kts 314°
2026-05-06 16:49 47.69994 13.13327 21561 ft 386 kts 314°
2026-05-06 16:50 47.72067 13.10794 21078 ft 384 kts 314°
2026-05-06 16:50 47.74106 13.08300 20604 ft 381 kts 314°
2026-05-06 16:50 47.76147 13.05799 20121 ft 379 kts 314°
2026-05-06 16:50 47.78157 13.03334 19641 ft 376 kts 314°
2026-05-06 16:51 47.80184 13.00848 19146 ft 374 kts 314°
2026-05-06 16:51 47.82190 12.98383 18650 ft 371 kts 314°
2026-05-06 16:51 47.84179 12.95937 18157 ft 369 kts 314°
2026-05-06 16:51 47.86131 12.93534 17672 ft 367 kts 314°
2026-05-06 16:52 47.88084 12.91126 17188 ft 364 kts 314°
2026-05-06 16:52 47.90038 12.88715 16706 ft 362 kts 313°
2026-05-06 16:52 47.91962 12.86338 16231 ft 360 kts 313°
2026-05-06 16:52 47.93865 12.83955 15756 ft 355 kts 311°
2026-05-06 16:53 47.95552 12.81352 15243 ft 346 kts 303°
2026-05-06 16:53 47.96948 12.78495 14658 ft 338 kts 296°
2026-05-06 16:53 47.98159 12.75521 14083 ft 336 kts 294°
2026-05-06 16:53 47.99324 12.72555 13572 ft 333 kts 294°
2026-05-06 16:54 48.00497 12.69552 13054 ft 332 kts 294°
2026-05-06 16:54 48.01654 12.66605 12535 ft 329 kts 295°
2026-05-06 16:54 48.02804 12.63693 11991 ft 327 kts 295°
2026-05-06 16:54 48.03954 12.60788 11426 ft 325 kts 295°
2026-05-06 16:55 48.05080 12.57951 11073 ft 312 kts 296°
2026-05-06 16:55 48.06172 12.55206 10778 ft 298 kts 296°
2026-05-06 16:55 48.07214 12.52616 10402 ft 289 kts 296°
2026-05-06 16:55 48.08248 12.50032 9934 ft 287 kts 297°
2026-05-06 16:56 48.09263 12.47480 9775 ft 283 kts 297°
2026-05-06 16:56 48.10255 12.45008 9756 ft 267 kts 298°
2026-05-06 16:56 48.11182 12.42689 9755 ft 257 kts 298°
2026-05-06 16:56 48.12093 12.40400 9759 ft 258 kts 298°
2026-05-06 16:57 48.13016 12.38076 9761 ft 257 kts 299°
2026-05-06 16:57 48.13921 12.35820 9532 ft 254 kts 298°
2026-05-06 16:57 48.14847 12.33529 9152 ft 255 kts 298°
2026-05-06 16:57 48.15747 12.31267 8728 ft 253 kts 298°
2026-05-06 16:58 48.16757 12.29131 8207 ft 253 kts 315°
2026-05-06 16:58 48.18118 12.27470 7689 ft 251 kts 322°
2026-05-06 16:58 48.19514 12.25990 7169 ft 249 kts 323°
2026-05-06 16:58 48.20936 12.24506 6671 ft 247 kts 324°
2026-05-06 16:59 48.22335 12.23043 6296 ft 245 kts 324°
2026-05-06 16:59 48.23715 12.21596 5957 ft 243 kts 324°
2026-05-06 16:59 48.25097 12.20110 5646 ft 241 kts 324°
2026-05-06 16:59 48.26448 12.18644 5505 ft 241 kts 324°
2026-05-06 17:00 48.27790 12.17166 5383 ft 241 kts 324°
2026-05-06 17:00 48.29145 12.15684 5260 ft 241 kts 324°
2026-05-06 17:00 48.30495 12.14213 5135 ft 240 kts 324°
2026-05-06 17:00 48.31858 12.12717 5014 ft 240 kts 324°
2026-05-06 17:01 48.33190 12.11245 5001 ft 240 kts 324°
2026-05-06 17:01 48.34534 12.09777 4998 ft 240 kts 324°
2026-05-06 17:01 48.35787 12.08122 4959 ft 240 kts 304°
2026-05-06 17:01 48.36379 12.05795 4755 ft 240 kts 275°
2026-05-06 17:02 48.36324 12.03298 4442 ft 238 kts 264°
2026-05-06 17:02 48.36112 12.00855 4110 ft 236 kts 262°
2026-05-06 17:02 48.35893 11.98477 3784 ft 227 kts 262°
2026-05-06 17:02 48.35699 11.96159 3467 ft 219 kts 265°
2026-05-06 17:03 48.35730 11.93870 3164 ft 216 kts 278°
2026-05-06 17:03 48.36060 11.91820 3110 ft 192 kts 289°
2026-05-06 17:03 48.36607 11.90085 2862 ft 174 kts 299°
2026-05-06 17:03 48.37056 11.88509 2621 ft 158 kts 281°
2026-05-06 17:04 48.37049 11.86908 2253 ft 152 kts 265°
2026-05-06 17:04 48.36945 11.85380 1963 ft 145 kts 264°
2026-05-06 17:04 48.36822 11.83877 1721 ft 144 kts 263°
2026-05-06 17:04 48.36709 11.82387 1530 ft 145 kts 263°
2026-05-06 17:05 48.36596 11.80923 1460 ft 126 kts 263°
2026-05-06 17:05 48.36515 11.79860 1465 ft 83 kts 264°
2026-05-06 17:05 48.36454 11.79069 1468 ft 69 kts 265°
2026-05-06 17:05 48.36402 11.78401 1471 ft 60 kts 263°
2026-05-06 17:06 48.36263 11.77936 1472 ft 43 kts 233°
2026-05-06 17:06 48.36165 11.77739 1473 ft 7 kts 233°
2026-05-06 17:06 48.36128 11.77681 1474 ft 7 kts 213°
2026-05-06 17:06 48.36076 11.77660 1474 ft 7 kts 183°
2026-05-06 17:07 48.36032 11.77664 1474 ft 5 kts 175°
2026-05-06 17:07 48.36028 11.77664 1474 ft 0 kts 175°
2026-05-06 17:09 48.36025 11.77665 1474 ft 2 kts 175°
2026-05-06 17:09 48.35973 11.77673 1475 ft 11 kts 173°
2026-05-06 17:09 48.35881 11.77690 1475 ft 13 kts 173°
2026-05-06 17:09 48.35786 11.77707 1476 ft 13 kts 174°
2026-05-06 17:10 48.35692 11.77723 1477 ft 13 kts 173°
2026-05-06 17:10 48.35601 11.77739 1478 ft 13 kts 173°
2026-05-06 17:10 48.35513 11.77754 1478 ft 12 kts 173°
2026-05-06 17:10 48.35433 11.77768 1479 ft 11 kts 173°
2026-05-06 17:11 48.35359 11.77786 1479 ft 10 kts 158°
2026-05-06 17:11 48.35335 11.77872 1480 ft 9 kts 86°
2026-05-06 17:11 48.35341 11.77969 1480 ft 9 kts 84°
2026-05-06 17:11 48.35348 11.78068 1480 ft 10 kts 84°
2026-05-06 17:12 48.35315 11.78162 1480 ft 12 kts 161°
2026-05-06 17:12 48.35226 11.78181 1480 ft 12 kts 174°
2026-05-06 17:12 48.35146 11.78195 1480 ft 6 kts 173°
2026-05-06 17:12 48.35121 11.78236 1480 ft 5 kts 89°
2026-05-06 17:13 48.35127 11.78299 1480 ft 5 kts 83°
2026-05-06 17:13 48.35130 11.78334 1480 ft 1 kts 83°
2026-05-06 17:13 48.35130 11.78337 1480 ft 0 kts 83°